Grand Marais, MN

2:34 AM CDT on April 20, 2018 (GMT -0500)
Grand Marais

Weather History for KGNA - October, 2013

Change the Weather History Date:

Saturday, October 26, 2013

  Actual Average (KCKC) Record (KCKC)
Temperature  
Mean Temperature 40 °F -  
Max Temperature 46 °F 41 °F 57 °F (2000)
Min Temperature 36 °F 29 °F 12 °F (1997)
Degree Days  
Heating Degree Days 25    
Moisture  
Dew Point 28 °F    
Average Humidity 63    
Maximum Humidity 82    
Minimum Humidity 43    
Precipitation  
Precipitation 0.03 in - - ()
Sea Level Pressure  
Sea Level Pressure 29.88 in    
Wind  
Wind Speed 3 mph (NNW)    
Max Wind Speed 8 mph    
Max Gust Speed 24 mph    
Averages and records for this station are not official NWS values.
T = Trace of Precipitation, MM = Missing Value Source: NWS Daily Summary

Daily Weather History Graph

Daily Weather History Graph

Search for Another Location

Airport or City:

Astronomy

Oct. 26, 2013 Rise Set
Actual Time 7:37 AM CDT 5:52 PM CDT
Civil Twilight 7:05 AM CDT 6:24 PM CDT
Nautical Twilight 6:28 AM CDT 7:00 PM CDT
Astronomical Twilight 5:53 AM CDT 7:36 PM CDT
Moon No Moon Rise 1:56 PM CDT (10/26)
Length of Visible Light 11h 19m
Length of Day
10h 15m
Waning Gibbous, 53% of the Moon is Illuminated
Oct 26
Waning Gibbous
Oct 26
Last Quarter
Nov 3
New
Nov 9
First Quarter
Nov 17
Full

Hourly Weather History & Observations

Time (CDT) Temp. Windchill Dew Point Humidity Pressure Visibility Wind Dir Wind Speed Gust Speed Precip Events Conditions
12:56 AM 43.0 °F 41.3 °F 35.1 °F 74% 29.61 in - Variable 3.5 mph - N/A   Unknown
1:56 AM 42.1 °F 40.2 °F 33.1 °F 70% 29.64 in - Variable 3.5 mph - N/A   Unknown
2:56 AM 41.0 °F - 35.1 °F 79% 29.67 in - Calm Calm - 0.02 in   Unknown
3:56 AM 39.0 °F - 34.0 °F 82% 29.69 in - Calm Calm - 0.01 in   Unknown
4:56 AM 37.9 °F 33.5 °F 30.0 °F 73% 29.73 in - Variable 5.8 mph - N/A   Unknown
5:56 AM 37.9 °F 35.5 °F 30.0 °F 73% 29.76 in - Variable 3.5 mph - N/A   Unknown
6:56 AM 39.0 °F 36.8 °F 28.9 °F 67% 29.79 in - NNW 3.5 mph - N/A   Unknown
7:56 AM 37.0 °F - 30.9 °F 79% 29.83 in - Calm Calm - N/A   Unknown
8:56 AM 37.0 °F - 30.9 °F 79% 29.86 in - Calm Calm - N/A   Unknown
9:56 AM 42.1 °F - 30.0 °F 62% 29.88 in - Calm Calm - N/A   Unknown
10:56 AM 41.0 °F 39.0 °F 27.0 °F 57% 29.91 in - Variable 3.5 mph - N/A   Unknown
11:56 AM 44.1 °F 41.5 °F 24.1 °F 45% 29.94 in - Variable 4.6 mph 18.4 mph N/A   Unknown
12:56 PM 44.1 °F 40.1 °F 25.0 °F 47% 29.96 in - North 6.9 mph 24.2 mph N/A   Unknown
1:56 PM 44.1 °F 40.1 °F 23.0 °F 43% 29.97 in - NW 6.9 mph 17.3 mph N/A   Unknown
2:56 PM 44.1 °F 40.8 °F 24.1 °F 45% 29.99 in - Variable 5.8 mph - N/A   Unknown
3:56 PM 44.1 °F 39.5 °F 23.0 °F 43% 30.00 in - North 8.1 mph - N/A   Unknown
4:56 PM 42.1 °F 38.4 °F 23.0 °F 47% 30.01 in - Variable 5.8 mph - N/A   Unknown
5:56 PM 39.9 °F 36.7 °F 24.1 °F 53% 30.01 in - Variable 4.6 mph - N/A   Unknown
6:56 PM 39.9 °F 36.7 °F 27.0 °F 60% 30.01 in - Variable 4.6 mph - N/A   Unknown
7:56 PM 39.0 °F - 26.1 °F 60% 30.01 in - Calm Calm - N/A   Unknown
8:56 PM 36.0 °F - 27.0 °F 70% 30.00 in - Calm Calm - N/A   Unknown
9:56 PM 37.0 °F - 28.0 °F 70% 29.99 in - Calm Calm - N/A   Unknown
10:56 PM 36.0 °F 33.3 °F 27.0 °F 70% 29.98 in - WNW 3.5 mph - N/A   Unknown
11:56 PM 37.0 °F 34.5 °F 27.0 °F 67% 29.96 in - WNW 3.5 mph - N/A   Unknown